User: anonymous   Login
Location: Freistadt
(48.5112°N, 14.5013°E)
Time: 00:42:56
(UTC+01:00)
Language:

Cosmos 1933 Rocket - Orbit

View from above orbital plane
View from above orbital plane
View from above satellite
View from above satellite

Ground track
Ground track

The orbit data is extracted from the following two-line orbital elements,

1 18959U 88020B   23340.14757044  .00000602  00000-0  69005-4 0  9996
2 18959  82.5384 222.1994 0014953 261.8314  98.1205 14.84218797909835
Epoch (UTC): 06 December 2023 03:32:30
Eccentricity: 0.0014953
inclination: 82.5384°
perigee height: 605 km
apogee height: 626 km
right ascension of ascending node: 222.1994°
argument of perigee: 261.8314°
revolutions per day: 14.84218797
mean anomaly at epoch: 98.1205°
orbit number at epoch: 90983

The dashed part of the orbit path shows where the satellite is in the earth's shadow,  

DLR